Location: R�o Medio
(42.4667°N, 3.0167°W)
Time: 20:57:20
(UTC+00:00)

Cosmos 1072 Rocket - Pass Details

Date: 27 February 2020
Orbit: 947 x 1009 km, 82.9° (Epoch: 29 March)

Event Time Altitude Azimuth Distance (km) Brightness Sun altitude
Rises 19:00:33 0° 181° (S) 3,716 7.6 -12.2°
Reaches altitude 10° 19:03:04 10° 180° (S) 2,765 6.9 -12.6°
Maximum altitude 19:09:26 79° 95° (E) 1,014 4.5 -13.8°
Drops below altitude 10° 19:15:44 10° 10° (N) 2,744 6.8 -15.0°
Sets 19:18:14 0° 9° (N) 3,687 7.5 -15.4°
